When you browse on this site, cookies collect data to enhance your experience and personalize the content and advertising you see.
Visit our Privacy Policy to learn more. By continuing to use the site, you agree to this use of cookies and data.
  • In Sweden
  • List of Countries
  • For 7 days
  • Water Temperature
  • Weather Map
  • Weather Widgets
  • user-avatar
    Login

    Hourly Weather Jygeva

    Today, 17 September, Tuesday

    Time Temperature Precipitation Wind Pressure Humidity
    00:00 +7°C° 0 mm 3 mps 743 mmHg 97%
    01:00 +7°C° 0 mm 3 mps 743 mmHg 97%
    02:00 +7°C° 0 mm 2 mps 743 mmHg 97%
    03:00 +7°C° 0 mm 2 mps 744 mmHg 97%
    04:00 +6°C° 0 mm 2 mps 744 mmHg 97%
    05:00 +6°C° 0 mm 2 mps 744 mmHg 97%
    06:00 +7°C° 0.1 mm 2 mps 744 mmHg 95%
    07:00 +7°C° 0.1 mm 2 mps 744 mmHg 94%
    08:00 +8°C° 0.1 mm 2 mps 744 mmHg 93%
    09:00 +9°C° 0 mm 2 mps 744 mmHg 85%
    10:00 +10°C° 0 mm 2 mps 744 mmHg 77%
    11:00 +12°C° 0 mm 2 mps 744 mmHg 70%
    12:00 +13°C° 0.1 mm 2 mps 744 mmHg 66%
    13:00 +13°C° 0.1 mm 2 mps 744 mmHg 63%
    14:00 +14°C° 0.1 mm 2 mps 744 mmHg 60%
    15:00 +13°C° 0.4 mm 2 mps 744 mmHg 67%
    16:00 +12°C° 0.4 mm 2 mps 743 mmHg 74%
    17:00 +10°C° 0.4 mm 2 mps 743 mmHg 80%
    18:00 +9°C° 0.2 mm 2 mps 743 mmHg 83%
    19:00 +8°C° 0.2 mm 2 mps 743 mmHg 85%
    20:00 +7°C° 0.2 mm 2 mps 743 mmHg 88%
    21:00 +7°C° 0 mm 2 mps 743 mmHg 88%
    22:00 +7°C° 0 mm 2 mps 743 mmHg 88%
    23:00 +6°C° 0 mm 2 mps 743 mmHg 89%

    Tomorrow, 18 September, Wednesday

    Time Temperature Precipitation Wind Pressure Humidity
    00:00 +6°C° 0 mm 2 mps 743 mmHg 90%
    01:00 +5°C° 0 mm 2 mps 744 mmHg 92%
    02:00 +5°C° 0 mm 2 mps 744 mmHg 93%
    03:00 +4°C° 0 mm 2 mps 744 mmHg 94%
    04:00 +5°C° 0 mm 1 mps 744 mmHg 94%
    05:00 +5°C° 0 mm 1 mps 745 mmHg 95%
    06:00 +5°C° 0 mm 2 mps 745 mmHg 92%
    07:00 +6°C° 0 mm 2 mps 745 mmHg 90%
    08:00 +8°C° 0 mm 2 mps 746 mmHg 87%
    09:00 +9°C° 0.2 mm 2 mps 747 mmHg 83%
    10:00 +10°C° 0.2 mm 2 mps 747 mmHg 79%
    11:00 +12°C° 0.2 mm 2 mps 748 mmHg 75%
    12:00 +12°C° 0.6 mm 2 mps 748 mmHg 76%
    13:00 +11°C° 0.6 mm 3 mps 748 mmHg 78%
    14:00 +11°C° 0.6 mm 3 mps 749 mmHg 80%
    15:00 +10°C° 0.2 mm 3 mps 749 mmHg 80%
    16:00 +10°C° 0.2 mm 3 mps 750 mmHg 80%
    17:00 +9°C° 0.2 mm 3 mps 750 mmHg 80%
    18:00 +8°C° 0 mm 2 mps 751 mmHg 82%
    19:00 +7°C° 0 mm 2 mps 751 mmHg 85%
    20:00 +5°C° 0 mm 2 mps 752 mmHg 88%
    21:00 +5°C° 0 mm 2 mps 752 mmHg 88%
    22:00 +4°C° 0 mm 2 mps 753 mmHg 89%
    23:00 +5°C° 0 mm 1 mps 753 mmHg 89%

    Day after tomorrow, 19 September, Thursday

    Time Temperature Precipitation Wind Pressure Humidity
    00:00 +5°C° 0 mm 1 mps 753 mmHg 90%
    01:00 +4°C° 0 mm 1 mps 754 mmHg 90%
    02:00 +4°C° 0 mm 1 mps 754 mmHg 90%
    03:00 +4°C° 0 mm 1 mps 754 mmHg 90%
    04:00 +5°C° 0 mm 1 mps 754 mmHg 90%
    05:00 +5°C° 0 mm 1 mps 754 mmHg 89%
    06:00 +6°C° 0.1 mm 1 mps 755 mmHg 89%
    07:00 +6°C° 0.1 mm 1 mps 755 mmHg 88%
    08:00 +7°C° 0.1 mm 1 mps 755 mmHg 88%
    09:00 +8°C° 0.1 mm 1 mps 755 mmHg 80%
    10:00 +9°C° 0.1 mm 1 mps 756 mmHg 72%
    11:00 +10°C° 0.1 mm 1 mps 756 mmHg 64%
    12:00 +11°C° 0 mm 1 mps 756 mmHg 60%
    13:00 +10°C° 0 mm 2 mps 756 mmHg 57%
    14:00 +10°C° 0 mm 2 mps 757 mmHg 53%
    15:00 +10°C° 0 mm 2 mps 757 mmHg 58%
    16:00 +10°C° 0 mm 1 mps 757 mmHg 63%
    17:00 +10°C° 0 mm 1 mps 757 mmHg 67%
    18:00 +9°C° 0 mm 1 mps 757 mmHg 74%
    19:00 +7°C° 0 mm 1 mps 757 mmHg 80%
    20:00 +6°C° 0 mm 1 mps 758 mmHg 87%
    21:00 +5°C° 0 mm 1 mps 758 mmHg 86%
    22:00 +5°C° 0 mm 1 mps 758 mmHg 86%
    23:00 +5°C° 0 mm 1 mps 759 mmHg 86%

    20 September, Friday

    Time Temperature Precipitation Wind Pressure Humidity
    00:00 +4°C° 0 mm 2 mps 759 mmHg 87%
    01:00 +4°C° 0 mm 2 mps 759 mmHg 88%
    02:00 +3°C° 0 mm 3 mps 760 mmHg 89%
    03:00 +3°C° 0 mm 3 mps 760 mmHg 90%
    04:00 +3°C° 0 mm 2 mps 761 mmHg 92%
    05:00 +3°C° 0 mm 2 mps 761 mmHg 93%
    06:00 +4°C° 0 mm 2 mps 761 mmHg 88%
    07:00 +3°C° 0 mm 3 mps 762 mmHg 83%
    08:00 +4°C° 0 mm 3 mps 762 mmHg 77%
    09:00 +5°C° 0 mm 3 mps 762 mmHg 70%
    10:00 +8°C° 0 mm 3 mps 763 mmHg 62%
    11:00 +9°C° 0 mm 3 mps 763 mmHg 55%
    12:00 +9°C° 0 mm 3 mps 763 mmHg 52%
    13:00 +9°C° 0 mm 3 mps 763 mmHg 50%
    14:00 +10°C° 0 mm 3 mps 763 mmHg 47%
    15:00 +9°C° 0 mm 2 mps 763 mmHg 51%
    16:00 +9°C° 0 mm 2 mps 763 mmHg 54%
    17:00 +9°C° 0 mm 1 mps 763 mmHg 57%
    18:00 +7°C° 0 mm 2 mps 763 mmHg 61%
    19:00 +6°C° 0 mm 2 mps 763 mmHg 64%
    20:00 +4°C° 0 mm 2 mps 763 mmHg 67%
    21:00 +4°C° 0 mm 2 mps 763 mmHg 67%
    22:00 +5°C° 0 mm 2 mps 763 mmHg 67%
    23:00 +5°C° 0 mm 2 mps 763 mmHg 67%

    21 September, Saturday

    Time Temperature Precipitation Wind Pressure Humidity
    00:00 +5°C° 0.1 mm 2 mps 762 mmHg 74%
    01:00 +5°C° 0.1 mm 2 mps 762 mmHg 81%
    02:00 +5°C° 0.1 mm 2 mps 761 mmHg 88%
    03:00 +5°C° 0.6 mm 3 mps 761 mmHg 91%
    04:00 +5°C° 0.6 mm 3 mps 760 mmHg 93%
    05:00 +5°C° 0.6 mm 4 mps 759 mmHg 96%
    06:00 +6°C° 1.1 mm 4 mps 759 mmHg 96%
    07:00 +6°C° 1.1 mm 4 mps 758 mmHg 96%
    08:00 +7°C° 1.1 mm 4 mps 758 mmHg 97%
    09:00 +7°C° 0.6 mm 4 mps 758 mmHg 97%
    10:00 +9°C° 0.6 mm 3 mps 758 mmHg 97%
    11:00 +10°C° 0.6 mm 3 mps 758 mmHg 97%
    12:00 +10°C° 0.5 mm 3 mps 757 mmHg 97%
    13:00 +10°C° 0.5 mm 3 mps 757 mmHg 98%
    14:00 +11°C° 0.5 mm 3 mps 757 mmHg 98%
    15:00 +11°C° 0.3 mm 3 mps 757 mmHg 97%
    16:00 +11°C° 0.3 mm 3 mps 758 mmHg 97%
    17:00 +11°C° 0.3 mm 3 mps 758 mmHg 96%
    18:00 +10°C° 0 mm 2 mps 758 mmHg 97%
    19:00 +10°C° 0 mm 2 mps 758 mmHg 97%
    20:00 +10°C° 0 mm 2 mps 759 mmHg 97%
    21:00 +10°C° 0 mm 2 mps 759 mmHg 97%
    22:00 +10°C° 0 mm 2 mps 759 mmHg 96%
    23:00 +10°C° 0 mm 3 mps 759 mmHg 96%

    22 September, Sunday

    Time Temperature Precipitation Wind Pressure Humidity
    00:00 +10°C° 0 mm 2 mps 760 mmHg 96%
    01:00 +9°C° 0 mm 2 mps 760 mmHg 96%
    02:00 +9°C° 0 mm 2 mps 760 mmHg 97%
    03:00 +9°C° 0 mm 2 mps 760 mmHg 97%
    04:00 +9°C° 0 mm 3 mps 760 mmHg 97%
    05:00 +8°C° 0 mm 3 mps 761 mmHg 97%
    06:00 +9°C° 0 mm 3 mps 761 mmHg 95%
    07:00 +10°C° 0 mm 3 mps 761 mmHg 93%
    08:00 +11°C° 0 mm 3 mps 761 mmHg 92%
    09:00 +13°C° 0 mm 3 mps 761 mmHg 86%
    10:00 +16°C° 0 mm 3 mps 761 mmHg 81%
    11:00 +17°C° 0 mm 3 mps 761 mmHg 75%
    12:00 +18°C° 0 mm 3 mps 761 mmHg 70%
    13:00 +19°C° 0 mm 3 mps 761 mmHg 66%
    14:00 +21°C° 0 mm 3 mps 761 mmHg 61%
    15:00 +20°C° 0 mm 3 mps 761 mmHg 67%
    16:00 +19°C° 0 mm 3 mps 760 mmHg 72%
    17:00 +18°C° 0 mm 3 mps 760 mmHg 77%
    18:00 +15°C° 0 mm 4 mps 760 mmHg 82%
    19:00 +14°C° 0 mm 4 mps 761 mmHg 87%
    20:00 +12°C° 0 mm 4 mps 761 mmHg 92%
    21:00 +12°C° 0 mm 4 mps 761 mmHg 93%
    22:00 +12°C° 0 mm 4 mps 761 mmHg 93%
    23:00 +12°C° 0 mm 4 mps 761 mmHg 93%
    Show more